| time (UTC) | temp F | wind direction | speed knots | gust knots | rain 1hr in | rain 24hr in | rain mn in | humidity % | barometer mb |
| 20260504041822 | 68 | 179 | 0.9 | 0.9 | 0.00 | 0.00 | 0.00 | 62 | 1016.5 |
| 20260504034820 | 69 | 192 | 1.7 | 1.7 | 0.00 | 0.00 | 0.00 | 60 | 1016.7 |
| 20260504031821 | 70 | 165 | 0.9 | 1.7 | 0.00 | 0.00 | 0.00 | 57 | 1016.4 |
| 20260504024819 | 71 | 160 | 2.6 | 2.6 | 0.00 | 0.00 | 0.00 | 54 | 1016.3 |
| 20260504021816 | 72 | 162 | 2.6 | 2.6 | 0.00 | 0.00 | 0.00 | 52 | 1016.4 |
| 20260504014813 | 74 | 156 | 2.6 | 4.3 | 0.00 | 0.00 | 0.00 | 49 | 1016.1 |
| 20260504011808 | 75 | 205 | 1.7 | 2.6 | 0.00 | 0.00 | 0.00 | 48 | 1016.0 |
| 20260504004804 | 76 | 169 | 2.6 | 4.3 | 0.00 | 0.00 | 0.00 | 45 | 1015.9 |
| 20260504001803 | 78 | 207 | 3.5 | 4.3 | 0.00 | 0.00 | 0.00 | 43 | 1016.0 |
| 20260503234759 | 79 | 175 | 2.6 | 4.3 | 0.00 | 0.00 | 0.00 | 40 | 1016.2 |
| 20260503231753 | 80 | 171 | 1.7 | 1.7 | 0.00 | 0.00 | 0.00 | 40 | 1016.2 |
| 20260503224749 | 81 | 213 | 5.2 | 7.8 | 0.00 | 0.00 | 0.00 | 38 | 1016.3 |
| 20260503221745 | 82 | 179 | 5.2 | 7.0 | 0.00 | 0.00 | 0.00 | 36 | 1016.8 |
| 20260503214740 | 82 | 182 | 7.0 | 7.8 | 0.00 | 0.00 | 0.00 | 37 | 1016.7 |
| 20260503211735 | 83 | 263 | 1.7 | 2.6 | 0.00 | 0.00 | 0.00 | 38 | 1017.4 |
| 20260503204735 | 83 | 264 | 1.7 | 1.7 | 0.00 | 0.00 | 0.00 | 38 | 1018.0 |
| 20260503201732 | 85 | 180 | 0.9 | 1.7 | 0.00 | 0.00 | 0.00 | 34 | 1018.5 |
| 20260503194731 | 84 | 193 | 2.6 | 4.3 | 0.00 | 0.00 | 0.00 | 35 | 1018.8 |
| 20260503191731 | 84 | 240 | 2.6 | 2.6 | 0.00 | 0.00 | 0.00 | 36 | 1019.7 |
| 20260503184727 | 82 | 249 | 0.0 | 0.9 | 0.00 | 0.00 | 0.00 | 39 | 1019.8 |
| 20260503181721 | 83 | 152 | 5.2 | 6.1 | 0.00 | 0.00 | 0.00 | 40 | 1020.2 |
| 20260503174720 | 81 | 302 | 2.6 | 2.6 | 0.00 | 0.00 | 0.00 | 43 | 1021.0 |
| 20260503171717 | 80 | 249 | 1.7 | 1.7 | 0.00 | 0.00 | 0.00 | 45 | 1021.5 |
| 20260503081629 | 55 | 145 | 0.0 | 0.0 | 0.00 | 0.00 | 0.00 | 84 | 1020.3 |
| 20260503071625 | 57 | 146 | 0.0 | 0.0 | 0.00 | 0.00 | 0.00 | 77 | 1020.8 |
| 20260503054614 | 60 | 153 | 0.0 | 0.0 | 0.00 | 0.00 | 0.00 | 70 | 1020.8 |
| 20260503051613 | 61 | 150 | 0.0 | 0.0 | 0.00 | 0.00 | 0.00 | 67 | 1020.3 |
| 20260503044613 | 63 | 167 | 0.0 | 0.9 | 0.00 | 0.00 | 0.00 | 64 | 1020.5 |